[[{"header":{"parameterUnit":"m.s-1","parameterCategory":1,"la1":30.2991,"la2":30.254,"lo1":-89.0895,"lo2":-89.0444,"dy":0.0017,"dx":0.0017,"nx":28,"ny":28,"refTime":"2024-06-13T21:00:00:Z","depth":0,"parameterNumber":2,"parameterNumberName":"U-component_of_WINDS"},"data":[0,0,0,0,0,0,0,0,0,0,0,0,0,0,0,0,0,0,0,0,0,0,0,0,0,0,0,0,0,0,0,0,0,0,0,0,0,0,0,0,0,0,0,0,0,0,0,0,0,0,0,0,0,0,0,0,0,0,0.2005,0.2006,0,0.207,0.2071,0.2072,0.213,0.213,0.2131,0.2132,0.22,0.2202,0.2203,0,0,0,0,0,0,0,0,0,0,0,0,0,0.1932,0.1933,0.2005,0.2006,0.2007,0.207,0.2071,0.2072,0.213,0.213,0.2131,0.2132,0.22,0.2201,0.2203,0,0,0,0,0,0,0,0,0,0,0,0,0,0.1977,0.1933,0.2005,0.2043,0.2047,0.207,0.2071,0.2072,0.2129,0.213,0.2131,0.2132,0.22,0.2201,0.2203,0.2194,0,0,0.2209,0.2209,0,0,0,0,0,0,0,0,0.1974,0.1979,0.2037,0.204,0.2045,0.2093,0.207,0.2113,0.2129,0.2098,0.2132,0.2133,0.2164,0.2169,0.2179,0.2197,0.22,0.2209,0.221,0.2211,0.2211,0,0,0,0,0,0,0,0.1971,0.1977,0.2031,0.2037,0.2043,0.2057,0.2065,0.2079,0.2125,0.2101,0.2105,0.2112,0.2166,0.2177,0.2181,0.2201,0.2209,0.221,0.2211,0.2212,0.2213,0.2212,0,0,0,0,0,0,0.1962,0.1974,0.2029,0.2033,0.2011,0.2058,0.2066,0.2076,0.2125,0.2133,0.2111,0.2115,0.2173,0.2179,0.2183,0.2175,0.2211,0.2212,0.2213,0.2214,0.2213,0.2212,0,0,0,0,0,0,0.196,0.1966,0.2026,0.2005,0.2013,0.2058,0.2069,0.2077,0.2088,0.2132,0.2141,0.2113,0.2174,0.2181,0.219,0.2178,0.2213,0.2215,0.2215,0.2214,0.2212,0.2157,0,0,0,0,0,0,0.1958,0.1965,0.1962,0.2004,0.2014,0.2032,0.2068,0.2078,0.209,0.2095,0.2137,0.2144,0.2176,0.2187,0.2192,0.2181,0.2216,0.2217,0.2215,0.2213,0.216,0.2154,0.2148,0,0,0,0,0,0.1955,0.1945,0.1961,0.1968,0.2011,0.2031,0.2037,0.2072,0.2089,0.2086,0.2115,0.2143,0.2178,0.2188,0.2194,0.2183,0.2218,0.2215,0.2213,0.2163,0.2155,0.2149,0,0,0,0,0,0,0.1901,0.1951,0.197,0.1973,0.1997,0.204,0.2038,0.2063,0.2083,0.2087,0.2131,0.214,0.2144,0.2165,0.2174,0.2175,0.2202,0.22,0.2162,0.2155,0.2149,0.2144,0.2218,0,0,0,0,0,0.189,0.1901,0.1944,0.1943,0.1954,0.1993,0.2003,0.2028,0.2055,0.2066,0.2095,0.212,0.2137,0.2147,0.2165,0.2164,0.2173,0.2159,0.2153,0.2148,0.2146,0.2145,0.2139,0.2204,0.2204,0.2204,0,0,0.1866,0.1895,0.19,0.1933,0.1954,0.1965,0.2002,0.2012,0.202,0.2068,0.2078,0.21,0.2131,0.2134,0.2137,0.2152,0.213,0.2145,0.214,0.2142,0.2142,0.2136,0.2131,0.2202,0.2203,0.2203,0,0,0.1829,0.1852,0.1852,0.1873,0.1904,0.193,0.193,0.1969,0.1985,0.1996,0.2031,0.2042,0.207,0.209,0.2104,0.2071,0.2098,0.2076,0.2045,0.2044,0.2039,0.2034,0.2022,0.2017,0.2074,0.2074,0.2074,0,0.1796,0.1813,0.185,0.1857,0.187,0.1912,0.1913,0.1931,0.1967,0.1975,0.199,0.2025,0.2049,0.2057,0.2048,0.2059,0.206,0.2072,0.2036,0.2032,0.2029,0.2017,0.2012,0.2071,0.2072,0.2072,0.2072,0,0.177,0.1781,0.1778,0.181,0.1823,0.1827,0.1864,0.1873,0.1896,0.192,0.193,0.196,0.1984,0.1988,0.2011,0.1998,0.2006,0.2028,0.2055,0.2019,0.2009,0.2005,0.2067,0.2068,0.2069,0.207,0,0,0.1702,0.1753,0.1751,0.1765,0.1802,0.1811,0.1817,0.1839,0.1845,0.1868,0.1873,0.1895,0.1915,0.193,0.1957,0.1955,0.1926,0.1978,0.1979,0.1966,0.1912,0.1894,0.1888,0.1944,0.1943,0.1942,0.1909,0,0.1669,0.1681,0.1714,0.1715,0.1725,0.1764,0.1769,0.1792,0.1814,0.1826,0.1852,0.1866,0.1892,0.1902,0.1902,0.1929,0.1915,0.1932,0.1948,0.1949,0.1939,0.1883,0.1865,0.1832,0.1905,0.1905,0.1904,0,0.1634,0.1652,0.1654,0.1689,0.1695,0.1698,0.172,0.1731,0.1758,0.1774,0.179,0.1819,0.1826,0.1851,0.1861,0.1872,0.188,0.1894,0.1894,0.1897,0.1924,0.1883,0.1823,0.1817,0.1898,0.1899,0.1899,0,0.1582,0.1608,0.1612,0.1623,0.1664,0.1665,0.1683,0.171,0.1721,0.174,0.1747,0.1767,0.1778,0.1793,0.1826,0.1842,0.1832,0.1861,0.1846,0.1845,0.1842,0.1841,0.178,0.1848,0.1848,0.1848,0.1849,0,0.1542,0.1542,0.1589,0.1591,0.1592,0.1629,0.1628,0.1649,0.1673,0.168,0.1716,0.1721,0.1765,0.1775,0.1801,0.1805,0.181,0.1823,0.183,0.182,0.1818,0.1826,0.1828,0.1847,0.1847,0.1848,0.1848,0,0.1484,0.1516,0.1523,0.156,0.157,0.1568,0.16,0.1604,0.1628,0.1636,0.1641,0.1679,0.1693,0.1727,0.1751,0.1768,0.1765,0.1778,0.1755,0.176,0.1742,0.1743,0.1684,0.1677,0.1749,0.1749,0.1748,0,0.1457,0.1457,0.1494,0.15,0.1516,0.1526,0.1537,0.1573,0.1583,0.1612,0.1612,0.1628,0.1644,0.1665,0.1694,0.1712,0.1726,0.1703,0.1729,0.1717,0.1724,0.1723,0.1723,0.1698,0.1697,0.1696,0.1695,0,0.1403,0.1418,0.1432,0.145,0.1461,0.1478,0.1497,0.15,0.1541,0.155,0.1564,0.1576,0.1599,0.1615,0.1637,0.1655,0.1681,0.1687,0.1684,0.1673,0.166,0.1666,0.1739,0.1688,0.1689,0.1689,0.169,0.169,0.1359,0.136,0.1386,0.1399,0.1417,0.1433,0.1437,0.1461,0.1474,0.1495,0.1516,0.1527,0.1552,0.1585,0.16,0.161,0.1624,0.162,0.1619,0.1618,0.1612,0.1658,0.1614,0.1615,0.1615,0.1615,0.1615,0,0.1306,0.1324,0.1336,0.136,0.137,0.1394,0.1415,0.1422,0.1431,0.1452,0.1466,0.1482,0.1497,0.1527,0.1545,0.1547,0.1559,0.155,0.155,0.1553,0.16,0.16,0.1539,0.1539,0.1539,0.1539,0.1539,0.1539,0.128,0.1283,0.1301,0.1312,0.1331,0.1342,0.1352,0.1366,0.1383,0.1398,0.1411,0.143,0.1454,0.1474,0.1488,0.1497,0.1501,0.1488,0.15,0.1543,0.155,0.1557,0.1557,0.1489,0.1489,0.1453,0.1453,0.1452]},{"header":{"parameterUnit":"m.s-1","parameterCategory":1,"la1":30.2991,"la2":30.254,"lo1":-89.0895,"lo2":-89.0444,"dy":0.0017,"dx":0.0017,"nx":28,"ny":28,"refTime":"2024-06-13T21:00:00:Z","depth":0,"parameterNumber":3,"parameterNumberName":"V-component_of_WINDS"},"data":[0,0,0,0,0,0,0,0,0,0,0,0,0,0,0,0,0,0,0,0,0,0,0,0,0,0,0,0,0,0,0,0,0,0,0,0,0,0,0,0,0,0,0,0,0,0,0,0,0,0,0,0,0,0,0,0,0,0,3.363,3.363,0,3.3626,3.3626,3.3626,3.3653,3.3654,3.3655,3.3655,3.3646,3.3645,3.3644,0,0,0,0,0,0,0,0,0,0,0,0,0,3.3657,3.3656,3.363,3.363,3.363,3.3626,3.3626,3.3626,3.3653,3.3654,3.3655,3.3656,3.3646,3.3645,3.3644,0,0,0,0,0,0,0,0,0,0,0,0,0,3.3648,3.3656,3.363,3.3643,3.3644,3.3626,3.3626,3.3626,3.3653,3.3654,3.3655,3.3656,3.3647,3.3645,3.3644,3.3612,0,0,3.3639,3.3639,0,0,0,0,0,0,0,0,3.3649,3.3647,3.3641,3.3642,3.3644,3.3642,3.3632,3.3621,3.3653,3.3649,3.3655,3.3657,3.3643,3.3642,3.3639,3.3611,3.3611,3.3639,3.3638,3.3638,3.3637,0,0,0,0,0,0,0,3.3649,3.3647,3.3629,3.3641,3.3643,3.3648,3.3648,3.363,3.364,3.365,3.3652,3.3651,3.3644,3.364,3.3639,3.3611,3.3639,3.3638,3.3637,3.3637,3.3556,3.3555,0,0,0,0,0,0,3.3649,3.3648,3.3629,3.3629,3.3649,3.3646,3.3647,3.3641,3.364,3.3641,3.365,3.3652,3.3642,3.364,3.3638,3.36,3.3638,3.3636,3.3636,3.3558,3.3556,3.3555,0,0,0,0,0,0,3.3649,3.3647,3.3629,3.3639,3.3637,3.3645,3.3638,3.364,3.3636,3.364,3.3642,3.3645,3.3643,3.364,3.3618,3.36,3.3636,3.3634,3.3559,3.3557,3.3555,3.3524,0,0,0,0,0,0,3.365,3.3647,3.3635,3.3638,3.3636,3.361,3.3637,3.3639,3.3634,3.3637,3.3636,3.3636,3.3644,3.3621,3.3617,3.3599,3.3633,3.3561,3.3558,3.3556,3.3526,3.3521,3.3516,0,0,0,0,0,3.3651,3.3625,3.3635,3.3632,3.3623,3.3609,3.3608,3.3618,3.3633,3.3621,3.3624,3.3636,3.3603,3.3618,3.3614,3.3595,3.3562,3.3559,3.3556,3.3528,3.3522,3.3516,0,0,0,0,0,0,3.3618,3.3626,3.3636,3.3612,3.361,3.3614,3.3599,3.3611,3.3603,3.3606,3.3618,3.3617,3.3593,3.3592,3.3608,3.3564,3.3585,3.3581,3.3565,3.3559,3.3554,3.3554,3.3632,0,0,0,0,0,3.3608,3.3598,3.3605,3.3583,3.3582,3.359,3.3585,3.3593,3.3591,3.359,3.3591,3.3587,3.3575,3.3567,3.3557,3.3527,3.3526,3.3512,3.3507,3.3503,3.3499,3.3483,3.3476,3.3545,3.3546,3.3546,0,0,3.3587,3.3591,3.3583,3.3576,3.3576,3.3563,3.3589,3.3575,3.3566,3.3587,3.3566,3.3567,3.3563,3.3537,3.3526,3.3536,3.348,3.35,3.3496,3.3494,3.3479,3.3472,3.3466,3.3544,3.3544,3.3544,0,0,3.3543,3.3545,3.3526,3.3526,3.3525,3.3532,3.3527,3.353,3.3532,3.3512,3.3528,3.3516,3.3497,3.3493,3.3489,3.3445,3.3456,3.3441,3.3414,3.3398,3.3392,3.3388,3.337,3.3364,3.3438,3.3438,3.3438,0,3.3516,3.35,3.3514,3.35,3.3496,3.3517,3.3498,3.3496,3.3491,3.3488,3.35,3.3477,3.3475,3.3448,3.3438,3.3434,3.3428,3.344,3.3392,3.3388,3.3383,3.3367,3.3361,3.3436,3.3436,3.3436,3.3436,0,3.3466,3.3455,3.344,3.3437,3.3432,3.3414,3.3425,3.3418,3.3428,3.3432,3.3412,3.3412,3.3402,3.3396,3.3405,3.337,3.3377,3.3391,3.3411,3.3375,3.3359,3.3353,3.3433,3.3434,3.3434,3.3435,0,0,3.3398,3.3406,3.34,3.3399,3.3401,3.3392,3.3376,3.3368,3.3361,3.3358,3.3343,3.3327,3.334,3.3336,3.3344,3.333,3.3294,3.3345,3.3345,3.3334,3.3255,3.3243,3.3235,3.3302,3.3301,3.33,3.3255,0,3.3354,3.3328,3.3341,3.3313,3.3302,3.3323,3.3308,3.3307,3.3312,3.3302,3.3306,3.3294,3.3313,3.3311,3.3298,3.3301,3.3277,3.3305,3.3287,3.3286,3.3285,3.3228,3.3215,3.3172,3.3249,3.3248,3.3247,0,3.3298,3.3294,3.3265,3.327,3.3265,3.3252,3.3247,3.3238,3.3237,3.3241,3.3237,3.3249,3.3232,3.3254,3.323,3.3248,3.3242,3.3243,3.3241,3.3238,3.3263,3.3221,3.3158,3.3151,3.3238,3.3239,3.324,0,3.3249,3.3237,3.3218,3.3217,3.3222,3.3213,3.3214,3.3215,3.321,3.3204,3.3201,3.3193,3.3188,3.3181,3.319,3.3206,3.3165,3.3188,3.3166,3.3165,3.3154,3.3154,3.3087,3.3153,3.3153,3.3154,3.3154,0,3.3197,3.3178,3.3197,3.3184,3.3164,3.3179,3.3158,3.3161,3.3162,3.315,3.3168,3.3156,3.317,3.3159,3.3166,3.3144,3.3142,3.3144,3.3145,3.3141,3.314,3.3135,3.3138,3.3152,3.3152,3.3153,3.3153,0,3.3138,3.315,3.3131,3.3138,3.314,3.3124,3.313,3.3118,3.3125,3.311,3.3107,3.3116,3.3105,3.3114,3.3102,3.3107,3.3078,3.3084,3.3078,3.3079,3.3056,3.3057,3.2981,3.2972,3.3046,3.3045,3.3045,0,3.3103,3.3089,3.3096,3.309,3.3091,3.3081,3.3076,3.3092,3.3086,3.3085,3.3073,3.3063,3.3056,3.3036,3.3041,3.3032,3.3037,3.3012,3.3036,3.3032,3.3035,3.3035,3.3033,3.3006,3.3005,3.3004,3.3003,0,3.3038,3.3045,3.3039,3.3035,3.3029,3.3026,3.3024,3.3018,3.3034,3.3026,3.3015,3.301,3.2999,3.2988,3.2981,3.2981,3.2994,3.2996,3.299,3.2984,3.2981,3.2981,3.3063,3.2997,3.2998,3.2998,3.2999,3.2999,3.2989,3.2977,3.2981,3.2973,3.2974,3.2972,3.2961,3.2968,3.296,3.2953,3.2962,3.2949,3.2949,3.2941,3.294,3.2928,3.2938,3.293,3.2928,3.2925,3.2921,3.2985,3.2927,3.2927,3.2927,3.2928,3.2928,0,3.2924,3.2928,3.292,3.2918,3.2912,3.2928,3.2927,3.292,3.2908,3.2908,3.2901,3.2889,3.2879,3.2884,3.2876,3.2865,3.2871,3.2862,3.2862,3.2861,3.2913,3.2918,3.2858,3.2858,3.2858,3.2858,3.2858,3.2858,3.2889,3.287,3.2878,3.286,3.2863,3.2851,3.2849,3.2847,3.2847,3.2833,3.2826,3.283,3.2832,3.2824,3.2815,3.2817,3.2812,3.2801,3.2804,3.2851,3.2858,3.2864,3.2869,3.28,3.28,3.2754,3.2753,3.2753]}]]